Time,TemperatureF,DewpointF,PressureIn,WindDirection,WindDirectionDegrees,WindSpeedMPH,WindSpeedGustMPH,Humidity,HourlyPrecipIn,Conditions,Clouds,dailyrainin,SoftwareType,DateUTC
2013-05-06 00:01:00,54.2,34.4,30.04,South,171,4.0,4.0,47,0.00,CLR,,0.00,WeatherDisplay:10.37,2013-05-06 04:01:00,
2013-05-06 00:03:00,54.1,34.3,30.04,South,171,2.3,2.3,47,0.00,CLR,,0.00,WeatherDisplay:10.37,2013-05-06 04:03:00,
2013-05-06 00:08:00,53.9,34.6,30.04,SE,146,3.5,3.5,48,0.00,CLR,,0.00,WeatherDisplay:10.37,2013-05-06 04:08:00,
2013-05-06 00:13:00,53.7,34.5,30.04,SE,126,2.3,2.3,48,0.00,CLR,,0.00,WeatherDisplay:10.37,2013-05-06 04:13:00,
2013-05-06 00:18:00,53.9,34.6,30.04,SE,128,7.0,7.0,48,0.00,CLR,,0.00,WeatherDisplay:10.37,2013-05-06 04:18:00,
2013-05-06 00:23:00,53.9,35.2,30.04,South,174,4.6,4.6,49,0.00,CLR,,0.00,WeatherDisplay:10.37,2013-05-06 04:23:00,
2013-05-06 00:28:00,53.7,35.0,30.04,SE,125,8.1,8.1,49,0.00,CLR,,0.00,WeatherDisplay:10.37,2013-05-06 04:28:00,
2013-05-06 00:33:00,53.6,35.4,30.04,East,94,5.0,5.0,50,0.00,CLR,,0.00,WeatherDisplay:10.37,2013-05-06 04:33:00,
2013-05-06 00:38:00,53.5,35.3,30.04,SE,130,7.0,7.0,50,0.00,CLR,,0.00,WeatherDisplay:10.37,2013-05-06 04:38:00,
2013-05-06 00:43:00,53.4,35.2,30.04,SE,134,10.0,10.0,50,0.00,CLR,,0.00,WeatherDisplay:10.37,2013-05-06 04:43:00,
2013-05-06 00:48:00,53.3,35.6,30.04,SE,131,3.0,3.0,51,0.00,CLR,,0.00,WeatherDisplay:10.37,2013-05-06 04:48:00,
2013-05-06 00:53:00,52.8,35.6,30.04,SSE,151,1.2,1.2,52,0.00,CLR,,0.00,WeatherDisplay:10.37,2013-05-06 04:53:00,
2013-05-06 00:58:00,52.6,35.5,30.04,SSE,149,4.0,4.0,52,0.00,CLR,,0.00,WeatherDisplay:10.37,2013-05-06 04:58:00,
2013-05-06 01:03:00,52.4,35.3,30.04,SSE,149,6.0,6.0,52,0.00,CLR,,0.00,WeatherDisplay:10.37,2013-05-06 05:03:00,
2013-05-06 01:08:00,52.5,35.4,30.04,SE,134,5.0,5.0,52,0.00,CLR,,0.00,WeatherDisplay:10.37,2013-05-06 05:08:00,
2013-05-06 01:13:00,52.5,35.4,30.04,ESE,122,1.2,0.0,52,0.00,CLR,,0.00,WeatherDisplay:10.37,2013-05-06 05:13:00,
2013-05-06 01:18:00,52.4,35.8,30.04,SE,140,4.0,4.0,53,0.00,CLR,,0.00,WeatherDisplay:10.37,2013-05-06 05:18:00,
2013-05-06 01:23:00,52.2,35.6,30.03,SE,140,0.0,0.0,53,0.00,CLR,,0.00,WeatherDisplay:10.37,2013-05-06 05:23:00,
2013-05-06 01:28:00,51.7,35.6,30.04,SE,146,2.0,2.0,54,0.00,CLR,,0.00,WeatherDisplay:10.37,2013-05-06 05:28:00,
2013-05-06 01:33:00,51.6,35.5,30.04,South,176,3.0,3.0,54,0.00,CLR,,0.00,WeatherDisplay:10.37,2013-05-06 05:33:00,
2013-05-06 01:38:00,51.6,35.5,30.04,SE,129,5.0,5.0,54,0.00,CLR,,0.00,WeatherDisplay:10.37,2013-05-06 05:38:00,
2013-05-06 01:43:00,51.7,35.6,30.03,SE,141,4.0,4.0,54,0.00,CLR,,0.00,WeatherDisplay:10.37,2013-05-06 05:43:00,
2013-05-06 01:48:00,51.7,35.6,30.04,SSE,159,6.0,6.0,54,0.00,CLR,,0.00,WeatherDisplay:10.37,2013-05-06 05:48:00,
2013-05-06 01:53:00,51.8,35.7,30.03,ESE,123,2.3,2.3,54,0.00,CLR,,0.00,WeatherDisplay:10.37,2013-05-06 05:53:00,
2013-05-06 01:58:00,51.6,35.9,30.03,SE,127,2.3,2.3,55,0.00,CLR,,0.00,WeatherDisplay:10.37,2013-05-06 05:58:00,
2013-05-06 02:03:00,51.4,35.8,30.03,SSE,153,1.2,0.0,55,0.00,CLR,,0.00,WeatherDisplay:10.37,2013-05-06 06:03:00,
2013-05-06 02:08:00,50.9,35.7,30.03,East,99,3.5,3.5,56,0.00,CLR,,0.00,WeatherDisplay:10.37,2013-05-06 06:08:00,
2013-05-06 02:13:00,50.5,35.8,30.02,ENE,69,3.5,3.5,57,0.00,CLR,,0.00,WeatherDisplay:10.37,2013-05-06 06:13:00,
2013-05-06 02:18:00,50.1,35.4,30.02,ENE,69,1.2,0.0,57,0.00,CLR,,0.00,WeatherDisplay:10.37,2013-05-06 06:18:00,
2013-05-06 02:23:00,50.1,35.4,30.02,ENE,68,1.2,0.0,57,0.00,CLR,,0.00,WeatherDisplay:10.37,2013-05-06 06:23:00,
2013-05-06 02:28:00,50.0,35.8,30.02,ESE,119,2.3,2.3,58,0.00,CLR,,0.00,WeatherDisplay:10.37,2013-05-06 06:28:00,
2013-05-06 02:33:00,50.1,35.9,30.02,ENE,57,1.2,1.2,58,0.00,CLR,,0.00,WeatherDisplay:10.37,2013-05-06 06:33:00,
2013-05-06 02:38:00,50.1,35.9,30.02,ENE,57,2.3,2.3,58,0.00,CLR,,0.00,WeatherDisplay:10.37,2013-05-06 06:38:00,
2013-05-06 02:43:00,50.1,35.9,30.02,ENE,60,1.2,1.2,58,0.00,CLR,,0.00,WeatherDisplay:10.37,2013-05-06 06:43:00,
2013-05-06 02:48:00,50.0,36.2,30.02,ENE,60,1.2,1.2,59,0.00,CLR,,0.00,WeatherDisplay:10.37,2013-05-06 06:48:00,
2013-05-06 02:53:00,49.7,35.9,30.02,ENE,67,3.5,3.5,59,0.00,CLR,,0.00,WeatherDisplay:10.37,2013-05-06 06:53:00,
2013-05-06 02:58:00,49.5,36.2,30.02,SE,128,2.0,2.0,60,0.00,CLR,,0.00,WeatherDisplay:10.37,2013-05-06 06:58:00,
2013-05-06 03:03:00,49.4,36.1,30.02,ESE,121,1.2,1.2,60,0.00,CLR,,0.00,WeatherDisplay:10.37,2013-05-06 07:03:00,
2013-05-06 03:08:00,49.2,35.9,30.01,ESE,121,2.3,2.3,60,0.00,CLR,,0.00,WeatherDisplay:10.37,2013-05-06 07:08:00,
2013-05-06 03:13:00,49.3,36.0,30.01,ESE,121,2.3,2.3,60,0.00,CLR,,0.00,WeatherDisplay:10.37,2013-05-06 07:13:00,
2013-05-06 03:18:00,49.2,35.9,30.01,ESE,123,1.0,1.0,60,0.00,CLR,,0.00,WeatherDisplay:10.37,2013-05-06 07:18:00,
2013-05-06 03:23:00,49.0,35.7,30.01,ESE,122,2.3,2.3,60,0.00,CLR,,0.00,WeatherDisplay:10.37,2013-05-06 07:23:00,
2013-05-06 03:28:00,49.0,36.1,30.01,SE,128,5.0,5.0,61,0.00,CLR,,0.00,WeatherDisplay:10.37,2013-05-06 07:28:00,
2013-05-06 03:33:00,48.9,36.0,30.01,SE,144,2.3,2.3,61,0.00,CLR,,0.00,WeatherDisplay:10.37,2013-05-06 07:33:00,
2013-05-06 03:38:00,48.7,35.8,30.01,ESE,115,3.5,3.5,61,0.00,CLR,,0.00,WeatherDisplay:10.37,2013-05-06 07:38:00,
2013-05-06 03:43:00,48.7,36.3,30.01,ESE,119,2.0,2.0,62,0.00,CLR,,0.00,WeatherDisplay:10.37,2013-05-06 07:43:00,
2013-05-06 03:48:00,48.6,35.7,30.01,ESE,119,1.2,1.2,61,0.00,CLR,,0.00,WeatherDisplay:10.37,2013-05-06 07:48:00,
2013-05-06 03:53:00,48.5,36.1,30.01,ESE,119,1.0,0.0,62,0.00,CLR,,0.00,WeatherDisplay:10.37,2013-05-06 07:53:00,
2013-05-06 03:58:00,48.3,35.9,30.01,ESE,122,1.2,0.0,62,0.00,CLR,,0.00,WeatherDisplay:10.37,2013-05-06 07:58:00,
2013-05-06 04:03:00,48.3,35.9,30.01,ESE,123,1.2,1.2,62,0.00,CLR,,0.00,WeatherDisplay:10.37,2013-05-06 08:03:00,
2013-05-06 04:08:00,48.0,36.0,30.01,ESE,111,0.0,0.0,63,0.00,CLR,,0.00,WeatherDisplay:10.37,2013-05-06 08:08:00,
2013-05-06 04:13:00,47.3,36.1,30.01,ESE,112,0.0,0.0,65,0.00,CLR,,0.00,WeatherDisplay:10.37,2013-05-06 08:13:00,
2013-05-06 04:18:00,47.2,36.0,30.01,ESE,109,2.3,2.3,65,0.00,CLR,,0.00,WeatherDisplay:10.37,2013-05-06 08:18:00,
2013-05-06 04:23:00,47.1,35.9,30.01,ESE,109,2.3,2.3,65,0.00,CLR,,0.00,WeatherDisplay:10.37,2013-05-06 08:23:00,
2013-05-06 04:28:00,46.9,35.7,30.01,ESE,109,1.0,0.0,65,0.00,CLR,,0.00,WeatherDisplay:10.37,2013-05-06 08:28:00,
2013-05-06 04:33:00,46.8,36.0,30.01,ESE,109,1.2,1.2,66,0.00,CLR,,0.00,WeatherDisplay:10.37,2013-05-06 08:33:00,
2013-05-06 04:38:00,46.9,36.1,30.01,ESE,109,0.0,0.0,66,0.00,CLR,,0.00,WeatherDisplay:10.37,2013-05-06 08:38:00,
2013-05-06 04:43:00,46.9,36.1,30.01,ESE,109,0.0,0.0,66,0.00,CLR,,0.00,WeatherDisplay:10.37,2013-05-06 08:43:00,
2013-05-06 04:48:00,46.7,35.9,30.01,ESE,109,1.2,0.0,66,0.00,CLR,,0.00,WeatherDisplay:10.37,2013-05-06 08:48:00,
2013-05-06 04:53:00,46.5,35.7,30.02,ESE,109,0.0,0.0,66,0.00,CLR,,0.00,WeatherDisplay:10.37,2013-05-06 08:53:00,
2013-05-06 04:58:00,46.6,36.2,30.02,ESE,109,0.0,0.0,67,0.00,CLR,,0.00,WeatherDisplay:10.37,2013-05-06 08:58:00,
2013-05-06 05:03:00,46.7,36.3,30.02,ESE,109,2.3,2.3,67,0.00,CLR,,0.00,WeatherDisplay:10.37,2013-05-06 09:03:00,
2013-05-06 05:08:00,46.8,36.0,30.02,ESE,109,0.0,0.0,66,0.00,CLR,,0.00,WeatherDisplay:10.37,2013-05-06 09:08:00,
2013-05-06 05:13:00,46.7,36.3,30.02,ESE,109,1.0,0.0,67,0.00,CLR,,0.00,WeatherDisplay:10.37,2013-05-06 09:13:00,
2013-05-06 05:18:00,46.7,36.3,30.02,ESE,109,1.2,1.2,67,0.00,CLR,,0.00,WeatherDisplay:10.37,2013-05-06 09:18:00,
2013-05-06 05:23:00,46.7,36.3,30.02,ESE,109,2.3,0.0,67,0.00,CLR,,0.00,WeatherDisplay:10.37,2013-05-06 09:23:00,
2013-05-06 05:28:00,46.8,36.4,30.02,ESE,109,1.2,0.0,67,0.00,CLR,,0.00,WeatherDisplay:10.37,2013-05-06 09:28:00,
2013-05-06 05:33:00,46.7,36.3,30.02,ESE,109,2.3,2.3,67,0.00,CLR,,0.00,WeatherDisplay:10.37,2013-05-06 09:33:00,
2013-05-06 05:38:00,46.4,36.0,30.02,ESE,109,0.0,0.0,67,0.00,CLR,,0.00,WeatherDisplay:10.37,2013-05-06 09:38:00,
2013-05-06 05:43:00,46.0,36.0,30.02,ESE,109,2.0,0.0,68,0.00,CLR,,0.00,WeatherDisplay:10.37,2013-05-06 09:43:00,
2013-05-06 05:48:00,46.1,36.1,30.02,ESE,109,1.2,1.2,68,0.00,CLR,,0.00,WeatherDisplay:10.37,2013-05-06 09:48:00,
2013-05-06 05:53:00,46.3,36.3,30.02,ESE,109,1.2,0.0,68,0.00,CLR,,0.00,WeatherDisplay:10.37,2013-05-06 09:53:00,
2013-05-06 05:58:00,46.3,36.3,30.03,ESE,109,0.0,0.0,68,0.00,CLR,,0.00,WeatherDisplay:10.37,2013-05-06 09:58:00,
2013-05-06 06:03:00,45.6,36.0,30.03,ESE,109,2.3,2.3,69,0.00,CLR,,0.00,WeatherDisplay:10.37,2013-05-06 10:03:00,
2013-05-06 06:08:00,45.0,35.8,30.02,East,79,3.5,3.5,70,0.00,CLR,,0.00,WeatherDisplay:10.37,2013-05-06 10:08:00,
2013-05-06 06:13:00,44.5,35.7,30.02,ENE,78,3.5,3.5,71,0.00,CLR,,0.00,WeatherDisplay:10.37,2013-05-06 10:13:00,
2013-05-06 06:18:00,44.4,35.6,30.02,ENE,78,3.0,3.0,71,0.00,CLR,,0.00,WeatherDisplay:10.37,2013-05-06 10:18:00,
2013-05-06 06:23:00,44.4,35.6,30.02,ENE,78,1.2,0.0,71,0.00,CLR,,0.00,WeatherDisplay:10.37,2013-05-06 10:23:00,
2013-05-06 06:28:00,44.5,36.0,30.02,ENE,78,2.3,2.3,72,0.00,CLR,,0.00,WeatherDisplay:10.37,2013-05-06 10:28:00,
2013-05-06 06:33:00,44.6,36.1,30.02,ENE,78,3.5,3.5,72,0.00,CLR,,0.00,WeatherDisplay:10.37,2013-05-06 10:33:00,
2013-05-06 06:38:00,45.0,36.2,30.02,ENE,78,2.3,2.3,71,0.00,CLR,,0.00,WeatherDisplay:10.37,2013-05-06 10:38:00,
2013-05-06 06:43:00,45.1,36.3,30.03,ENE,78,2.3,2.3,71,0.00,CLR,,0.00,WeatherDisplay:10.37,2013-05-06 10:43:00,
2013-05-06 06:48:00,45.5,36.6,30.03,ENE,78,2.3,2.3,71,0.00,CLR,,0.00,WeatherDisplay:10.37,2013-05-06 10:48:00,
2013-05-06 06:53:00,45.6,36.4,30.03,ENE,78,1.2,1.2,70,0.00,CLR,,0.00,WeatherDisplay:10.37,2013-05-06 10:53:00,
2013-05-06 06:58:00,45.7,36.8,30.03,ENE,78,1.0,0.0,71,0.00,CLR,,0.00,WeatherDisplay:10.37,2013-05-06 10:58:00,
2013-05-06 07:03:00,45.8,36.9,30.03,ENE,78,2.3,2.3,71,0.00,CLR,,0.00,WeatherDisplay:10.37,2013-05-06 11:03:00,
2013-05-06 07:08:00,45.8,36.9,30.04,ENE,78,0.0,0.0,71,0.00,CLR,,0.00,WeatherDisplay:10.37,2013-05-06 11:08:00,
2013-05-06 07:13:00,46.7,37.4,30.04,ESE,122,1.2,1.2,70,0.00,CLR,,0.00,WeatherDisplay:10.37,2013-05-06 11:13:00,
2013-05-06 07:18:00,47.4,37.7,30.04,ESE,123,0.0,0.0,69,0.00,CLR,,0.00,WeatherDisplay:10.37,2013-05-06 11:18:00,
2013-05-06 07:23:00,47.6,37.6,30.04,SSE,155,4.6,4.6,68,0.00,CLR,,0.00,WeatherDisplay:10.37,2013-05-06 11:23:00,
2013-05-06 07:28:00,47.8,37.7,30.04,SE,132,4.0,4.0,68,0.00,CLR,,0.00,WeatherDisplay:10.37,2013-05-06 11:28:00,
2013-05-06 07:33:00,48.3,38.2,30.04,NE,53,3.5,3.5,68,0.00,CLR,,0.00,WeatherDisplay:10.37,2013-05-06 11:33:00,
2013-05-06 07:38:00,48.6,38.5,30.04,ENE,72,4.0,4.0,68,0.00,CLR,,0.00,WeatherDisplay:10.37,2013-05-06 11:38:00,
2013-05-06 07:43:00,48.8,38.7,30.04,NE,48,3.5,3.5,68,0.00,CLR,,0.00,WeatherDisplay:10.37,2013-05-06 11:43:00,
2013-05-06 07:48:00,49.2,38.7,30.04,ESE,119,5.0,5.0,67,0.00,CLR,,0.00,WeatherDisplay:10.37,2013-05-06 11:48:00,
2013-05-06 07:53:00,49.6,38.7,30.05,ESE,123,3.5,3.5,66,0.00,CLR,,0.00,WeatherDisplay:10.37,2013-05-06 11:53:00,
2013-05-06 07:58:00,50.0,38.7,30.04,SSE,168,5.0,5.0,65,0.00,CLR,,0.00,WeatherDisplay:10.37,2013-05-06 11:58:00,
2013-05-06 08:03:00,50.2,39.3,30.05,ESE,121,2.3,2.3,66,0.00,CLR,,0.00,WeatherDisplay:10.37,2013-05-06 12:03:00,
2013-05-06 08:08:00,50.7,39.7,30.04,ESE,110,2.3,0.0,66,0.00,CLR,,0.00,WeatherDisplay:10.37,2013-05-06 12:08:00,
2013-05-06 08:13:00,51.1,39.7,30.04,East,96,3.5,3.5,65,0.00,CLR,,0.00,WeatherDisplay:10.37,2013-05-06 12:13:00,
2013-05-06 08:18:00,51.4,39.6,30.04,SE,124,7.0,7.0,64,0.00,CLR,,0.00,WeatherDisplay:10.37,2013-05-06 12:18:00,
2013-05-06 08:23:00,52.0,39.8,30.04,ENE,75,9.2,9.2,63,0.00,CLR,,0.00,WeatherDisplay:10.37,2013-05-06 12:23:00,
2013-05-06 08:28:00,52.0,39.4,30.04,ESE,113,5.0,5.0,62,0.00,CLR,,0.00,WeatherDisplay:10.37,2013-05-06 12:28:00,
2013-05-06 08:33:00,52.3,39.7,30.04,SSW,198,9.2,9.2,62,0.00,CLR,,0.00,WeatherDisplay:10.37,2013-05-06 12:33:00,
2013-05-06 08:38:00,52.5,39.8,30.04,East,84,4.0,4.0,62,0.00,CLR,,0.00,WeatherDisplay:10.37,2013-05-06 12:38:00,
2013-05-06 08:43:00,53.0,40.3,30.04,NE,44,7.0,7.0,62,0.00,CLR,,0.00,WeatherDisplay:10.37,2013-05-06 12:43:00,
2013-05-06 08:48:00,53.3,40.2,30.04,SSW,195,4.0,4.0,61,0.00,CLR,,0.00,WeatherDisplay:10.37,2013-05-06 12:48:00,
2013-05-06 08:53:00,53.6,41.7,30.04,East,82,5.0,5.0,64,0.00,CLR,,0.00,WeatherDisplay:10.37,2013-05-06 12:53:00,
2013-05-06 08:58:00,53.4,40.7,30.04,SE,133,2.3,2.3,62,0.00,CLR,,0.00,WeatherDisplay:10.37,2013-05-06 12:58:00,
2013-05-06 09:03:00,53.7,41.0,30.04,East,101,6.0,6.0,62,0.00,CLR,,0.00,WeatherDisplay:10.37,2013-05-06 13:03:00,
2013-05-06 09:08:00,54.2,41.5,30.04,ESE,123,9.0,9.0,62,0.00,CLR,,0.00,WeatherDisplay:10.37,2013-05-06 13:08:00,
2013-05-06 09:13:00,55.0,42.6,30.04,SSW,209,7.0,7.0,63,0.00,CLR,,0.00,WeatherDisplay:10.37,2013-05-06 13:13:00,
2013-05-06 09:18:00,55.6,42.8,30.04,SSE,166,5.0,5.0,62,0.00,CLR,,0.00,WeatherDisplay:10.37,2013-05-06 13:18:00,
2013-05-06 09:23:00,55.7,42.9,30.04,SSE,151,10.4,10.4,62,0.00,CLR,,0.00,WeatherDisplay:10.37,2013-05-06 13:23:00,
2013-05-06 09:28:00,56.0,43.2,30.04,East,81,8.1,8.1,62,0.00,CLR,,0.00,WeatherDisplay:10.37,2013-05-06 13:28:00,
2013-05-06 09:33:00,56.5,44.0,30.03,SSE,156,3.5,3.5,63,0.00,CLR,,0.00,WeatherDisplay:10.37,2013-05-06 13:33:00,
2013-05-06 09:38:00,57.5,45.0,30.03,ESE,122,4.0,4.0,63,0.00,CLR,,0.00,WeatherDisplay:10.37,2013-05-06 13:38:00,
2013-05-06 09:43:00,57.9,44.1,30.04,SSE,148,6.0,6.0,60,0.00,CLR,,0.00,WeatherDisplay:10.37,2013-05-06 13:43:00,
2013-05-06 09:48:00,57.7,44.3,30.04,ESE,111,6.0,6.0,61,0.00,CLR,,0.00,WeatherDisplay:10.37,2013-05-06 13:48:00,
2013-05-06 09:53:00,57.7,43.9,30.04,SE,143,6.0,6.0,60,0.00,CLR,,0.00,WeatherDisplay:10.37,2013-05-06 13:53:00,
2013-05-06 09:58:00,58.6,45.2,30.04,SSE,157,9.2,9.2,61,0.00,CLR,,0.00,WeatherDisplay:10.37,2013-05-06 13:58:00,
2013-05-06 10:03:00,59.4,45.5,30.04,SE,143,8.1,8.1,60,0.00,CLR,,0.00,WeatherDisplay:10.37,2013-05-06 14:03:00,
2013-05-06 10:08:00,59.6,45.2,30.04,South,188,17.3,17.3,59,0.00,CLR,,0.00,WeatherDisplay:10.37,2013-05-06 14:08:00,
2013-05-06 10:13:00,60.0,46.1,30.04,SSW,197,11.5,11.5,60,0.00,CLR,,0.00,WeatherDisplay:10.37,2013-05-06 14:13:00,
2013-05-06 10:18:00,60.2,45.8,30.04,SW,234,5.0,5.0,59,0.00,CLR,,0.00,WeatherDisplay:10.37,2013-05-06 14:18:00,
2013-05-06 10:23:00,59.8,45.4,30.04,NNE,24,5.0,5.0,59,0.00,CLR,,0.00,WeatherDisplay:10.37,2013-05-06 14:23:00,
2013-05-06 10:28:00,59.7,45.8,30.04,SW,215,6.9,6.9,60,0.00,CLR,,0.00,WeatherDisplay:10.37,2013-05-06 14:28:00,
2013-05-06 10:33:00,60.2,45.4,30.04,SW,215,12.0,12.0,58,0.00,CLR,,0.00,WeatherDisplay:10.37,2013-05-06 14:33:00,
2013-05-06 10:38:00,60.4,46.0,30.03,ESE,117,9.0,9.0,59,0.00,CLR,,0.00,WeatherDisplay:10.37,2013-05-06 14:38:00,
2013-05-06 10:43:00,61.3,48.6,30.03,ENE,64,5.0,5.0,63,0.00,CLR,,0.00,WeatherDisplay:10.37,2013-05-06 14:43:00,
2013-05-06 10:45:00,60.7,50.5,30.00,ESE,111,0.0,3.0,69,0.00,CLR,CLR,0.00,WeatherDisplay:10.37,2013-05-06 14:45:00,
2013-05-06 10:48:00,62.1,48.5,30.03,East,98,4.6,4.6,61,0.00,CLR,,0.00,WeatherDisplay:10.37,2013-05-06 14:48:00,
2013-05-06 10:50:00,60.5,50.7,30.00,East,99,1.0,5.0,70,0.00,CLR,CLR,0.00,WeatherDisplay:10.37,2013-05-06 14:50:00,
2013-05-06 10:53:00,62.4,48.3,30.03,NE,55,6.0,6.0,60,0.00,CLR,,0.00,WeatherDisplay:10.37,2013-05-06 14:53:00,
2013-05-06 10:55:00,60.3,50.5,30.00,East,84,0.0,3.0,70,0.00,CLR,CLR,0.00,WeatherDisplay:10.37,2013-05-06 14:55:00,
2013-05-06 10:58:00,62.4,47.4,30.03,SE,132,5.0,5.0,58,0.00,CLR,,0.00,WeatherDisplay:10.37,2013-05-06 14:58:00,
2013-05-06 11:00:00,60.0,50.6,30.00,East,81,0.0,5.0,71,0.00,CLR,CLR,0.00,WeatherDisplay:10.37,2013-05-06 15:00:00,
2013-05-06 11:03:00,62.3,47.8,30.03,ESE,106,6.0,6.0,59,0.00,CLR,,0.00,WeatherDisplay:10.37,2013-05-06 15:03:00,
2013-05-06 11:05:00,59.8,50.4,30.00,East,99,2.0,5.0,71,0.00,CLR,CLR,0.00,WeatherDisplay:10.37,2013-05-06 15:05:00,
2013-05-06 11:08:00,62.8,48.7,30.03,ESE,108,1.2,1.2,60,0.00,CLR,,0.00,WeatherDisplay:10.37,2013-05-06 15:08:00,
2013-05-06 11:10:00,59.5,50.5,30.01,ESE,107,2.0,4.0,72,0.00,CLR,CLR,0.00,WeatherDisplay:10.37,2013-05-06 15:10:00,
2013-05-06 11:13:00,62.8,48.3,30.03,East,92,10.0,10.0,59,0.00,CLR,,0.00,WeatherDisplay:10.37,2013-05-06 15:13:00,
2013-05-06 11:15:00,59.2,50.5,30.01,East,83,0.0,4.0,73,0.00,CLR,CLR,0.00,WeatherDisplay:10.37,2013-05-06 15:15:00,
2013-05-06 11:18:00,62.5,48.0,30.04,ENE,76,6.0,6.0,59,0.00,CLR,,0.00,WeatherDisplay:10.37,2013-05-06 15:18:00,
2013-05-06 11:20:00,59.0,50.4,30.01,ESE,102,0.0,4.0,73,0.00,CLR,CLR,0.00,WeatherDisplay:10.37,2013-05-06 15:20:00,
2013-05-06 11:23:00,61.9,47.9,30.04,ESE,105,9.2,9.2,60,0.00,CLR,,0.00,WeatherDisplay:10.37,2013-05-06 15:23:00,
2013-05-06 11:25:00,59.0,50.4,30.01,SE,125,1.0,3.0,73,0.00,CLR,CLR,0.00,WeatherDisplay:10.37,2013-05-06 15:25:00,
2013-05-06 11:28:00,61.7,48.5,30.04,NE,49,6.9,6.9,62,0.00,CLR,,0.00,WeatherDisplay:10.37,2013-05-06 15:28:00,
2013-05-06 11:30:00,59.0,50.7,30.01,ESE,102,2.0,3.0,74,0.00,CLR,CLR,0.00,WeatherDisplay:10.37,2013-05-06 15:30:00,
2013-05-06 11:33:00,61.8,48.2,30.04,NNE,33,5.0,5.0,61,0.00,CLR,,0.00,WeatherDisplay:10.37,2013-05-06 15:33:00,
2013-05-06 11:35:00,59.0,50.7,30.01,ESE,112,1.0,4.0,74,0.00,CLR,CLR,0.00,WeatherDisplay:10.37,2013-05-06 15:35:00,
2013-05-06 11:38:00,61.9,48.3,30.04,SSE,158,6.0,6.0,61,0.00,CLR,,0.00,WeatherDisplay:10.37,2013-05-06 15:38:00,
2013-05-06 11:40:00,59.0,50.7,30.01,SE,128,0.0,7.0,74,0.00,CLR,CLR,0.00,WeatherDisplay:10.37,2013-05-06 15:40:00,
2013-05-06 11:43:00,62.0,49.3,30.04,ENE,61,1.2,1.2,63,0.00,CLR,,0.00,WeatherDisplay:10.37,2013-05-06 15:43:00,
2013-05-06 11:45:00,59.0,50.7,30.02,East,86,0.0,5.0,74,0.00,CLR,CLR,0.00,WeatherDisplay:10.37,2013-05-06 15:45:00,
2013-05-06 11:48:00,62.0,49.3,30.03,NNE,19,3.0,3.0,63,0.00,CLR,,0.00,WeatherDisplay:10.37,2013-05-06 15:48:00,
2013-05-06 11:50:00,59.0,50.7,30.02,ESE,106,0.0,5.0,74,0.00,CLR,CLR,0.00,WeatherDisplay:10.37,2013-05-06 15:50:00,
2013-05-06 11:53:00,63.1,49.0,30.03,SSW,213,6.0,6.0,60,0.00,CLR,,0.00,WeatherDisplay:10.37,2013-05-06 15:53:00,
2013-05-06 11:55:00,59.0,50.7,30.01,SE,124,0.0,2.0,74,0.00,CLR,CLR,0.00,WeatherDisplay:10.37,2013-05-06 15:55:00,
2013-05-06 11:58:00,64.3,50.6,30.03,SW,223,7.0,7.0,61,0.00,CLR,,0.00,WeatherDisplay:10.37,2013-05-06 15:58:00,
2013-05-06 12:00:00,59.0,50.4,30.01,ESE,121,0.0,2.0,73,0.00,CLR,CLR,0.00,WeatherDisplay:10.37,2013-05-06 16:00:00,
2013-05-06 12:03:00,65.0,50.3,30.03,NE,55,2.3,2.3,59,0.00,CLR,,0.00,WeatherDisplay:10.37,2013-05-06 16:03:00,
2013-05-06 12:05:00,59.0,50.7,30.02,SE,128,0.0,1.0,74,0.00,CLR,CLR,0.00,WeatherDisplay:10.37,2013-05-06 16:05:00,
2013-05-06 12:08:00,64.2,49.6,30.03,ESE,109,4.0,4.0,59,0.00,CLR,,0.00,WeatherDisplay:10.37,2013-05-06 16:08:00,
2013-05-06 12:10:00,59.0,50.7,30.02,SE,126,0.0,2.0,74,0.00,CLR,CLR,0.00,WeatherDisplay:10.37,2013-05-06 16:10:00,
2013-05-06 12:13:00,64.5,50.3,30.03,SSW,213,10.4,10.4,60,0.00,CLR,,0.00,WeatherDisplay:10.37,2013-05-06 16:13:00,
2013-05-06 12:15:00,58.6,50.7,30.02,ESE,123,0.0,2.0,75,0.00,CLR,CLR,0.00,WeatherDisplay:10.37,2013-05-06 16:15:00,
2013-05-06 12:18:00,64.6,50.4,30.03,ESE,113,7.0,7.0,60,0.00,CLR,,0.00,WeatherDisplay:10.37,2013-05-06 16:18:00,
2013-05-06 12:20:00,57.8,51.0,30.02,SE,133,0.0,1.0,78,0.00,CLR,CLR,0.00,WeatherDisplay:10.37,2013-05-06 16:20:00,
2013-05-06 12:23:00,64.9,50.2,30.03,ESE,122,5.0,5.0,59,0.00,CLR,,0.00,WeatherDisplay:10.37,2013-05-06 16:23:00,
2013-05-06 12:25:00,57.3,50.8,30.02,SE,135,0.0,2.0,79,0.00,CLR,CLR,0.00,WeatherDisplay:10.37,2013-05-06 16:25:00,
2013-05-06 12:28:00,64.8,49.7,30.03,ESE,111,5.8,5.8,58,0.00,CLR,,0.00,WeatherDisplay:10.37,2013-05-06 16:28:00,
2013-05-06 12:30:00,57.0,50.9,30.02,SE,124,0.0,2.0,80,0.00,CLR,CLR,0.00,WeatherDisplay:10.37,2013-05-06 16:30:00,
2013-05-06 12:33:00,64.5,49.4,30.02,SE,136,4.0,4.0,58,0.00,CLR,,0.00,WeatherDisplay:10.37,2013-05-06 16:33:00,
2013-05-06 12:35:00,56.8,51.0,30.02,ESE,112,1.0,2.0,81,0.00,CLR,CLR,0.00,WeatherDisplay:10.37,2013-05-06 16:35:00,
2013-05-06 12:38:00,64.4,49.8,30.02,East,88,10.4,10.4,59,0.00,CLR,,0.00,WeatherDisplay:10.37,2013-05-06 16:38:00,
2013-05-06 12:40:00,56.7,50.9,30.01,ESE,112,0.0,1.0,81,0.00,CLR,CLR,0.00,WeatherDisplay:10.37,2013-05-06 16:40:00,
2013-05-06 12:43:00,64.6,50.4,30.02,SSE,160,4.6,4.6,60,0.00,CLR,,0.00,WeatherDisplay:10.37,2013-05-06 16:43:00,
2013-05-06 12:45:00,56.6,51.2,30.01,ESE,112,0.0,0.0,82,0.00,CLR,CLR,0.00,WeatherDisplay:10.37,2013-05-06 16:45:00,
2013-05-06 12:48:00,65.8,50.1,30.02,SE,142,10.4,10.4,57,0.00,CLR,,0.00,WeatherDisplay:10.37,2013-05-06 16:48:00,
2013-05-06 12:50:00,56.6,51.2,30.01,ESE,112,0.0,1.0,82,0.00,CLR,CLR,0.00,WeatherDisplay:10.37,2013-05-06 16:50:00,
2013-05-06 12:53:00,66.8,51.5,30.02,SE,138,6.0,6.0,58,0.00,CLR,,0.00,WeatherDisplay:10.37,2013-05-06 16:53:00,
2013-05-06 12:55:00,56.7,51.3,30.01,ESE,112,0.0,2.0,82,0.00,CLR,CLR,0.00,WeatherDisplay:10.37,2013-05-06 16:55:00,
2013-05-06 12:58:00,66.3,49.6,30.01,ENE,78,7.0,7.0,55,0.00,CLR,,0.00,WeatherDisplay:10.37,2013-05-06 16:58:00,
2013-05-06 13:03:00,65.5,49.4,30.01,South,176,7.0,7.0,56,0.00,CLR,,0.00,WeatherDisplay:10.37,2013-05-06 17:03:00,
2013-05-06 13:08:00,66.2,50.0,30.01,SSE,153,8.1,8.1,56,0.00,CLR,,0.00,WeatherDisplay:10.37,2013-05-06 17:08:00,
2013-05-06 13:13:00,66.5,50.3,30.01,SSW,202,12.7,12.7,56,0.00,CLR,,0.00,WeatherDisplay:10.37,2013-05-06 17:13:00,
2013-05-06 13:18:00,66.8,50.1,30.01,East,87,8.0,8.0,55,0.00,CLR,,0.00,WeatherDisplay:10.37,2013-05-06 17:18:00,
2013-05-06 13:23:00,66.3,49.6,30.01,SSE,150,9.0,9.0,55,0.00,CLR,,0.00,WeatherDisplay:10.37,2013-05-06 17:23:00,
2013-05-06 13:28:00,66.2,49.6,30.01,South,175,13.8,13.8,55,0.00,CLR,,0.00,WeatherDisplay:10.37,2013-05-06 17:28:00,
2013-05-06 13:33:00,65.8,49.7,30.01,South,188,8.0,8.0,56,0.00,CLR,,0.00,WeatherDisplay:10.37,2013-05-06 17:33:00,
2013-05-06 13:38:00,66.2,50.0,30.01,South,169,8.0,8.0,56,0.00,CLR,,0.00,WeatherDisplay:10.37,2013-05-06 17:38:00,
2013-05-06 13:43:00,66.1,49.9,30.01,SSE,164,3.5,3.5,56,0.00,CLR,,0.00,WeatherDisplay:10.37,2013-05-06 17:43:00,
2013-05-06 13:48:00,65.8,50.1,30.01,East,100,13.8,13.8,57,0.00,CLR,,0.00,WeatherDisplay:10.37,2013-05-06 17:48:00,
2013-05-06 13:53:00,64.9,50.2,30.01,ENE,68,1.2,1.2,59,0.00,CLR,,0.00,WeatherDisplay:10.37,2013-05-06 17:53:00,
2013-05-06 13:58:00,65.2,50.5,30.01,SE,133,4.6,4.6,59,0.00,CLR,,0.00,WeatherDisplay:10.37,2013-05-06 17:58:00,
2013-05-06 14:03:00,65.4,50.7,30.01,SE,137,10.4,10.4,59,0.00,CLR,,0.00,WeatherDisplay:10.37,2013-05-06 18:03:00,
2013-05-06 14:08:00,66.7,51.5,30.01,SW,216,7.0,7.0,58,0.00,CLR,,0.00,WeatherDisplay:10.37,2013-05-06 18:08:00,
2013-05-06 14:13:00,68.2,53.8,30.00,North,360,6.9,6.9,60,0.00,CLR,,0.00,WeatherDisplay:10.37,2013-05-06 18:13:00,
2013-05-06 14:18:00,67.5,50.8,30.00,East,88,9.2,9.2,55,0.00,CLR,,0.00,WeatherDisplay:10.37,2013-05-06 18:18:00,
2013-05-06 14:23:00,66.2,50.5,30.01,ENE,75,8.1,8.1,57,0.00,CLR,,0.00,WeatherDisplay:10.37,2013-05-06 18:23:00,
2013-05-06 14:28:00,66.8,51.5,30.00,East,93,11.5,11.5,58,0.00,CLR,,0.00,WeatherDisplay:10.37,2013-05-06 18:28:00,
2013-05-06 14:33:00,66.5,51.7,30.00,SSE,155,5.0,5.0,59,0.00,CLR,,0.00,WeatherDisplay:10.37,2013-05-06 18:33:00,
2013-05-06 14:38:00,67.8,53.9,30.00,East,101,4.0,4.0,61,0.00,CLR,,0.00,WeatherDisplay:10.37,2013-05-06 18:38:00,
2013-05-06 14:43:00,67.4,51.2,30.00,ENE,61,5.0,5.0,56,0.00,CLR,,0.00,WeatherDisplay:10.37,2013-05-06 18:43:00,
2013-05-06 14:48:00,66.1,50.4,30.00,SE,146,10.4,10.4,57,0.00,CLR,,0.00,WeatherDisplay:10.37,2013-05-06 18:48:00,
2013-05-06 14:53:00,66.0,50.3,30.00,SE,137,11.0,11.0,57,0.00,CLR,,0.00,WeatherDisplay:10.37,2013-05-06 18:53:00,
2013-05-06 14:58:00,65.7,50.0,29.99,ENE,67,5.8,5.8,57,0.00,CLR,,0.00,WeatherDisplay:10.37,2013-05-06 18:58:00,
2013-05-06 15:03:00,66.0,50.8,29.99,ESE,116,4.6,4.6,58,0.00,CLR,,0.00,WeatherDisplay:10.37,2013-05-06 19:03:00,
2013-05-06 15:08:00,65.9,49.8,29.99,ESE,102,11.5,11.5,56,0.00,CLR,,0.00,WeatherDisplay:10.37,2013-05-06 19:08:00,
2013-05-06 15:13:00,66.0,50.8,29.99,SSW,202,9.0,9.0,58,0.00,CLR,,0.00,WeatherDisplay:10.37,2013-05-06 19:13:00,
2013-05-06 15:18:00,66.1,50.9,29.99,ENE,59,3.5,3.5,58,0.00,CLR,,0.00,WeatherDisplay:10.37,2013-05-06 19:18:00,
2013-05-06 15:23:00,66.8,50.6,29.98,SE,140,5.0,5.0,56,0.00,CLR,,0.00,WeatherDisplay:10.37,2013-05-06 19:23:00,
2013-05-06 15:28:00,66.5,50.3,29.98,East,86,5.0,5.0,56,0.00,CLR,,0.00,WeatherDisplay:10.37,2013-05-06 19:28:00,
2013-05-06 15:33:00,66.3,50.6,29.98,East,87,11.5,11.5,57,0.00,CLR,,0.00,WeatherDisplay:10.37,2013-05-06 19:33:00,
2013-05-06 15:38:00,66.7,50.5,29.98,ENE,65,3.5,3.5,56,0.00,CLR,,0.00,WeatherDisplay:10.37,2013-05-06 19:38:00,
2013-05-06 15:43:00,66.6,51.4,29.98,ENE,61,3.5,3.5,58,0.00,CLR,,0.00,WeatherDisplay:10.37,2013-05-06 19:43:00,
2013-05-06 15:48:00,66.4,50.7,29.97,SSE,156,5.0,5.0,57,0.00,CLR,,0.00,WeatherDisplay:10.37,2013-05-06 19:48:00,
2013-05-06 15:53:00,66.3,50.6,29.97,SSE,154,7.0,7.0,57,0.00,CLR,,0.00,WeatherDisplay:10.37,2013-05-06 19:53:00,
2013-05-06 15:58:00,65.8,50.1,29.97,ENE,72,6.9,6.9,57,0.00,CLR,,0.00,WeatherDisplay:10.37,2013-05-06 19:58:00,
2013-05-06 16:03:00,66.5,51.3,29.97,ESE,122,3.5,3.5,58,0.00,CLR,,0.00,WeatherDisplay:10.37,2013-05-06 20:03:00,
2013-05-06 16:08:00,67.2,51.9,29.97,NE,49,5.0,5.0,58,0.00,CLR,,0.00,WeatherDisplay:10.37,2013-05-06 20:08:00,
2013-05-06 16:13:00,66.7,51.9,29.97,WNW,298,5.0,5.0,59,0.00,CLR,,0.00,WeatherDisplay:10.37,2013-05-06 20:13:00,
2013-05-06 16:18:00,67.8,51.5,29.97,ENE,63,4.0,4.0,56,0.00,CLR,,0.00,WeatherDisplay:10.37,2013-05-06 20:18:00,
2013-05-06 16:23:00,68.1,51.3,29.96,South,175,7.0,7.0,55,0.00,CLR,,0.00,WeatherDisplay:10.37,2013-05-06 20:23:00,
2013-05-06 16:28:00,67.1,50.4,29.97,SSE,155,8.1,8.1,55,0.00,CLR,,0.00,WeatherDisplay:10.37,2013-05-06 20:28:00,
2013-05-06 16:33:00,66.8,51.1,29.96,ESE,123,4.6,4.6,57,0.00,CLR,,0.00,WeatherDisplay:10.37,2013-05-06 20:33:00,
2013-05-06 16:38:00,66.5,50.8,29.96,South,169,4.6,4.6,57,0.00,CLR,,0.00,WeatherDisplay:10.37,2013-05-06 20:38:00,
2013-05-06 16:43:00,66.2,51.0,29.96,SE,145,2.3,2.3,58,0.00,CLR,,0.00,WeatherDisplay:10.37,2013-05-06 20:43:00,
2013-05-06 16:48:00,66.2,51.0,29.96,South,180,8.0,8.0,58,0.00,CLR,,0.00,WeatherDisplay:10.37,2013-05-06 20:48:00,
2013-05-06 16:53:00,66.1,51.4,29.96,East,92,7.0,7.0,59,0.00,CLR,,0.00,WeatherDisplay:10.37,2013-05-06 20:53:00,
2013-05-06 16:58:00,66.8,52.0,29.96,ENE,65,5.0,5.0,59,0.00,CLR,,0.00,WeatherDisplay:10.37,2013-05-06 20:58:00,
2013-05-06 17:03:00,67.2,51.0,29.96,ESE,108,12.0,12.0,56,0.00,CLR,,0.00,WeatherDisplay:10.37,2013-05-06 21:03:00,
2013-05-06 17:08:00,67.5,52.2,29.96,South,181,3.5,3.5,58,0.00,CLR,,0.00,WeatherDisplay:10.37,2013-05-06 21:08:00,
2013-05-06 17:13:00,67.5,51.7,29.97,East,85,5.0,5.0,57,0.00,CLR,,0.00,WeatherDisplay:10.37,2013-05-06 21:13:00,
2013-05-06 17:18:00,66.8,51.5,29.97,East,89,11.0,11.0,58,0.00,CLR,,0.00,WeatherDisplay:10.37,2013-05-06 21:18:00,
2013-05-06 17:23:00,66.4,51.2,29.97,SE,132,5.8,5.8,58,0.00,CLR,,0.00,WeatherDisplay:10.37,2013-05-06 21:23:00,
2013-05-06 17:28:00,66.2,51.4,29.97,ENE,76,7.0,7.0,59,0.00,CLR,,0.00,WeatherDisplay:10.37,2013-05-06 21:28:00,
2013-05-06 17:33:00,66.6,51.4,29.97,NE,34,6.9,6.9,58,0.00,CLR,,0.00,WeatherDisplay:10.37,2013-05-06 21:33:00,
2013-05-06 17:38:00,66.7,52.4,29.97,NW,319,4.0,4.0,60,0.00,CLR,,0.00,WeatherDisplay:10.37,2013-05-06 21:38:00,
2013-05-06 17:43:00,66.4,51.6,29.97,NE,39,5.0,5.0,59,0.00,CLR,,0.00,WeatherDisplay:10.37,2013-05-06 21:43:00,
2013-05-06 17:48:00,66.3,52.0,29.97,ESE,117,4.6,4.6,60,0.00,CLR,,0.00,WeatherDisplay:10.37,2013-05-06 21:48:00,
2013-05-06 17:53:00,66.5,51.7,29.97,SSE,153,7.0,7.0,59,0.00,CLR,,0.00,WeatherDisplay:10.37,2013-05-06 21:53:00,
2013-05-06 17:58:00,65.7,51.4,29.97,SSE,168,5.0,5.0,60,0.00,CLR,,0.00,WeatherDisplay:10.37,2013-05-06 21:58:00,
2013-05-06 18:03:00,65.3,51.1,29.97,NE,49,8.1,8.1,60,0.00,CLR,,0.00,WeatherDisplay:10.37,2013-05-06 22:03:00,
2013-05-06 18:08:00,65.4,51.6,29.97,ESE,116,4.0,4.0,61,0.00,CLR,,0.00,WeatherDisplay:10.37,2013-05-06 22:08:00,
2013-05-06 18:13:00,65.8,51.5,29.97,SSE,150,11.5,11.5,60,0.00,CLR,,0.00,WeatherDisplay:10.37,2013-05-06 22:13:00,
2013-05-06 18:18:00,66.0,51.3,29.97,ESE,117,8.1,8.1,59,0.00,CLR,,0.00,WeatherDisplay:10.37,2013-05-06 22:18:00,
2013-05-06 18:23:00,66.0,51.3,29.97,West,280,10.4,10.4,59,0.00,CLR,,0.00,WeatherDisplay:10.37,2013-05-06 22:23:00,
2013-05-06 18:28:00,65.6,51.3,29.97,NNE,32,7.0,7.0,60,0.00,CLR,,0.00,WeatherDisplay:10.37,2013-05-06 22:28:00,
2013-05-06 18:33:00,65.0,50.8,29.97,SE,142,9.0,9.0,60,0.00,CLR,,0.00,WeatherDisplay:10.37,2013-05-06 22:33:00,
2013-05-06 18:38:00,64.7,51.4,29.97,SE,144,4.6,4.6,62,0.00,CLR,,0.00,WeatherDisplay:10.37,2013-05-06 22:38:00,
2013-05-06 18:43:00,64.4,51.1,29.97,NE,51,7.0,7.0,62,0.00,CLR,,0.00,WeatherDisplay:10.37,2013-05-06 22:43:00,
2013-05-06 18:48:00,64.2,50.9,29.97,East,87,2.3,2.3,62,0.00,CLR,,0.00,WeatherDisplay:10.37,2013-05-06 22:48:00,
2013-05-06 18:53:00,63.9,51.1,29.97,East,101,2.3,2.3,63,0.00,CLR,,0.00,WeatherDisplay:10.37,2013-05-06 22:53:00,
2013-05-06 18:58:00,63.8,51.0,29.97,SE,133,1.2,1.2,63,0.00,CLR,,0.00,WeatherDisplay:10.37,2013-05-06 22:58:00,
2013-05-06 19:03:00,63.7,50.9,29.97,South,169,3.5,3.5,63,0.00,CLR,,0.00,WeatherDisplay:10.37,2013-05-06 23:03:00,
2013-05-06 19:08:00,63.6,51.2,29.97,SE,129,3.0,3.0,64,0.00,CLR,,0.00,WeatherDisplay:10.37,2013-05-06 23:08:00,
2013-05-06 19:13:00,63.3,50.9,29.97,East,95,4.0,4.0,64,0.00,CLR,,0.00,WeatherDisplay:10.37,2013-05-06 23:13:00,
2013-05-06 19:18:00,63.0,51.0,29.98,SSE,159,3.5,3.5,65,0.00,CLR,,0.00,WeatherDisplay:10.37,2013-05-06 23:18:00,
2013-05-06 19:23:00,62.7,50.8,29.98,ESE,104,4.0,4.0,65,0.00,CLR,,0.00,WeatherDisplay:10.37,2013-05-06 23:23:00,
2013-05-06 19:28:00,62.4,50.5,29.98,ENE,76,3.5,3.5,65,0.00,CLR,,0.00,WeatherDisplay:10.37,2013-05-06 23:28:00,
2013-05-06 19:33:00,62.2,50.7,29.99,SSE,149,5.0,5.0,66,0.00,CLR,,0.00,WeatherDisplay:10.37,2013-05-06 23:33:00,
2013-05-06 19:38:00,62.1,50.6,29.99,SE,141,5.0,5.0,66,0.00,CLR,,0.00,WeatherDisplay:10.37,2013-05-06 23:38:00,
2013-05-06 19:43:00,62.0,50.5,29.99,East,100,8.0,8.0,66,0.00,CLR,,0.00,WeatherDisplay:10.37,2013-05-06 23:43:00,
2013-05-06 19:48:00,61.9,50.4,29.99,SE,132,8.1,8.1,66,0.00,CLR,,0.00,WeatherDisplay:10.37,2013-05-06 23:48:00,
2013-05-06 19:53:00,61.6,50.5,29.99,SE,130,0.0,0.0,67,0.00,CLR,,0.00,WeatherDisplay:10.37,2013-05-06 23:53:00,
2013-05-06 19:58:00,61.4,50.3,29.99,ENE,77,3.5,3.5,67,0.00,CLR,,0.00,WeatherDisplay:10.37,2013-05-06 23:58:00,
2013-05-06 20:03:00,61.2,50.6,29.99,ESE,118,2.3,2.3,68,0.00,CLR,,0.00,WeatherDisplay:10.37,2013-05-07 00:03:00,
2013-05-06 20:08:00,61.1,50.5,29.99,ENE,59,3.5,3.5,68,0.00,CLR,,0.00,WeatherDisplay:10.37,2013-05-07 00:08:00,
2013-05-06 20:13:00,61.0,50.4,29.99,ESE,111,3.0,3.0,68,0.00,CLR,,0.00,WeatherDisplay:10.37,2013-05-07 00:13:00,
2013-05-06 20:18:00,60.9,50.3,29.99,East,91,2.3,2.3,68,0.00,CLR,,0.00,WeatherDisplay:10.37,2013-05-07 00:18:00,
2013-05-06 20:23:00,60.8,50.2,29.99,ESE,105,8.0,8.0,68,0.00,CLR,,0.00,WeatherDisplay:10.37,2013-05-07 00:23:00,
2013-05-06 20:28:00,60.7,50.1,30.00,East,95,5.0,5.0,68,0.00,CLR,,0.00,WeatherDisplay:10.37,2013-05-07 00:28:00,
2013-05-06 20:33:00,60.8,50.2,30.00,ESE,105,10.4,10.4,68,0.00,CLR,,0.00,WeatherDisplay:10.37,2013-05-07 00:33:00,
2013-05-06 20:38:00,60.8,50.2,30.00,ESE,109,3.5,3.5,68,0.00,CLR,,0.00,WeatherDisplay:10.37,2013-05-07 00:38:00,
2013-05-06 23:00:00,56.8,51.4,30.01,ENE,72,7.0,7.0,82,0.00,CLR,,0.00,WeatherDisplay:10.37,2013-05-07 03:00:00,
2013-05-06 23:05:00,57.1,51.3,30.01,East,81,3.5,3.5,81,0.00,CLR,,0.00,WeatherDisplay:10.37,2013-05-07 03:05:00,
2013-05-06 23:10:00,57.3,51.5,30.01,NNE,29,3.5,3.5,81,0.00,CLR,,0.00,WeatherDisplay:10.37,2013-05-07 03:10:00,
2013-05-06 23:15:00,57.4,51.3,30.01,ENE,77,0.0,0.0,80,0.00,CLR,,0.00,WeatherDisplay:10.37,2013-05-07 03:15:00,
2013-05-06 23:20:00,57.4,51.3,30.00,NE,53,3.5,3.5,80,0.00,CLR,,0.00,WeatherDisplay:10.37,2013-05-07 03:20:00,
2013-05-06 23:25:00,57.4,51.3,30.00,NNE,24,1.2,1.2,80,0.00,CLR,,0.00,WeatherDisplay:10.37,2013-05-07 03:25:00,
2013-05-06 23:30:00,57.2,51.1,30.00,East,79,5.0,5.0,80,0.00,CLR,,0.00,WeatherDisplay:10.37,2013-05-07 03:30:00,
2013-05-06 23:35:00,57.2,51.1,30.00,ENE,69,2.3,2.3,80,0.00,CLR,,0.00,WeatherDisplay:10.37,2013-05-07 03:35:00,
2013-05-06 23:40:00,57.3,51.2,29.99,ENE,68,0.0,0.0,80,0.00,CLR,,0.00,WeatherDisplay:10.37,2013-05-07 03:40:00,
2013-05-06 23:45:00,57.2,50.7,29.99,ENE,65,3.5,3.5,79,0.00,CLR,,0.00,WeatherDisplay:10.37,2013-05-07 03:45:00,
2013-05-06 23:50:00,57.2,51.1,29.99,NNE,29,1.2,0.0,80,0.00,CLR,,0.00,WeatherDisplay:10.37,2013-05-07 03:50:00,
2013-05-06 23:55:00,57.0,50.5,29.99,NNE,29,1.0,1.0,79,0.00,CLR,,0.00,WeatherDisplay:10.37,2013-05-07 03:55:00,